Simultaneous Nadir Overpasses (SNOs) Predictions

Prediction of SNOs between METOP-B and TERRA Satellite Orbit:

Table of predicted SNOs for the next 14.0 days since TLE Epoch: 10/6/2013
Index Date (METOP-B) Time (METOP-B) Lat,Lon (METOP-B) SZA (METOP-B ) Date (TERRA) Time (TERRA) Lat,Lon (TERRA) SZA (TERRA ) Distance(km) Time Diff (sec)
1 10/07/2013 09:57:32 81.30, 77.25 89.95 10/07/2013 09:58:27 81.31, 77.44 90.00 3.22 55
2 10/07/2013 10:48:10 -81.32,-114.62 89.94 10/07/2013 10:47:53 -81.32,-114.64 89.95 0.76 17
3 10/10/2013 05:31:52 81.31, 143.76 91.05 10/10/2013 05:32:38 81.30, 143.80 91.08 0.83 46
4 10/10/2013 06:22:30 -81.32, -48.10 88.84 10/10/2013 06:22:04 -81.32, -48.25 88.87 2.55 26
5 10/13/2013 01:06:12 81.31,-149.37 92.18 10/13/2013 01:06:49 81.31,-149.56 92.18 3.27 37
6 10/
